User: anonymous   Login
Location: Bothwell
(42.3833°S, 147.0000°E)
Time: 14:56:49
(UTC+10:00)
Language:

FALCONSAT 3 - Orbit

View from above orbital plane
View from above orbital plane
View from above satellite
View from above satellite

Ground track
Ground track

The orbit data is extracted from the following two-line orbital elements,

1 30776U 07006E   23020.97516193  .05912213  18976-5  10422-2 0  9994
2 30776  35.4119 244.1025 0008166 287.7199  72.2666 16.31507370883742
Epoch (UTC): 20 January 2023 23:24:13
Eccentricity: 0.0008166
inclination: 35.4119°
perigee height: 183 km
apogee height: 194 km
right ascension of ascending node: 244.1025°
argument of perigee: 287.7199°
revolutions per day: 16.31507370
mean anomaly at epoch: 72.2666°
orbit number at epoch: 88374

The dashed part of the orbit path shows where the satellite is in the earth's shadow,  

DLR